Time,TemperatureF,DewpointF,PressureIn,WindDirection,WindDirectionDegrees,WindSpeedMPH,WindSpeedGustMPH,Humidity,HourlyPrecipIn,Conditions,Clouds,dailyrainin,SoftwareType,DateUTC
2013-03-26 00:00:00,62.0,0.0,29.86,WSW,242,9.0,17.0,16,-99.99,,,-99.99,,2013-03-26 07:00:00,
2013-03-26 00:08:00,61.0,0.0,29.86,SW,234,10.0,15.0,18,-99.99,,,-99.99,,2013-03-26 07:08:00,
2013-03-26 00:16:00,61.0,0.0,29.86,SW,230,8.0,14.0,19,-99.99,,,-99.99,,2013-03-26 07:16:00,
2013-03-26 00:24:00,61.0,0.0,29.86,WSW,248,10.0,14.0,15,-99.99,,,-99.99,,2013-03-26 07:24:00,
2013-03-26 00:32:00,61.0,0.0,29.85,SW,230,10.0,14.0,15,-99.99,,,-99.99,,2013-03-26 07:32:00,
2013-03-26 00:40:00,61.0,0.0,29.85,SW,235,8.0,14.0,15,-99.99,,,-99.99,,2013-03-26 07:40:00,
2013-03-26 00:48:00,60.0,0.0,29.85,WSW,246,6.0,13.0,15,-99.99,,,-99.99,,2013-03-26 07:48:00,
2013-03-26 00:56:00,61.0,0.0,29.85,SW,225,13.0,14.0,15,-99.99,,,-99.99,,2013-03-26 07:56:00,
2013-03-26 01:04:00,60.0,0.0,29.85,SW,232,7.0,14.0,15,-99.99,,,-99.99,,2013-03-26 08:04:00,
2013-03-26 01:12:00,60.0,0.0,29.85,SW,226,9.0,12.0,17,-99.99,,,-99.99,,2013-03-26 08:12:00,
2013-03-26 01:20:00,60.0,0.0,29.85,WSW,239,7.0,12.0,18,-99.99,,,-99.99,,2013-03-26 08:20:00,
2013-03-26 01:28:00,59.0,0.0,29.85,SW,225,8.0,10.0,18,-99.99,,,-99.99,,2013-03-26 08:28:00,
2013-03-26 01:36:00,59.0,0.0,29.85,SW,225,12.0,12.0,18,-99.99,,,-99.99,,2013-03-26 08:36:00,
2013-03-26 01:44:00,60.0,0.0,29.85,SW,221,8.0,14.0,16,-99.99,,,-99.99,,2013-03-26 08:44:00,
2013-03-26 01:52:00,60.0,0.0,29.85,SW,224,8.0,13.0,17,-99.99,,,-99.99,,2013-03-26 08:52:00,
2013-03-26 02:00:00,59.0,0.0,29.85,SW,234,8.0,10.0,18,-99.99,,,-99.99,,2013-03-26 09:00:00,
2013-03-26 02:08:00,59.0,0.0,29.85,West,261,6.0,10.0,16,-99.99,,,-99.99,,2013-03-26 09:08:00,
2013-03-26 02:16:00,59.0,0.0,29.85,WSW,248,6.0,9.0,16,-99.99,,,-99.99,,2013-03-26 09:16:00,
2013-03-26 02:24:00,59.0,0.0,29.85,WSW,256,5.0,8.0,18,-99.99,,,-99.99,,2013-03-26 09:24:00,
2013-03-26 02:32:00,58.0,0.0,29.85,WNW,292,6.0,7.0,19,-99.99,,,-99.99,,2013-03-26 09:32:00,
2013-03-26 02:40:00,60.0,0.0,29.85,WSW,239,5.0,6.0,16,-99.99,,,-99.99,,2013-03-26 09:40:00,
2013-03-26 02:48:00,60.0,0.0,29.85,WNW,282,6.0,6.0,16,-99.99,,,-99.99,,2013-03-26 09:48:00,
2013-03-26 02:56:00,61.0,0.0,29.84,WSW,245,7.0,8.0,16,-99.99,,,-99.99,,2013-03-26 09:56:00,
2013-03-26 03:04:00,61.0,0.0,29.84,West,264,8.0,12.0,17,-99.99,,,-99.99,,2013-03-26 10:04:00,
2013-03-26 03:12:00,61.0,0.0,29.84,WSW,248,9.0,12.0,19,-99.99,,,-99.99,,2013-03-26 10:12:00,
2013-03-26 03:20:00,64.0,0.0,29.83,West,277,15.0,18.0,18,-99.99,,,-99.99,,2013-03-26 10:20:00,
2013-03-26 03:28:00,64.0,0.0,29.83,WNW,291,14.0,21.0,20,-99.99,,,-99.99,,2013-03-26 10:28:00,
2013-03-26 03:36:00,63.0,0.0,29.83,WNW,295,14.0,17.0,20,-99.99,,,-99.99,,2013-03-26 10:36:00,
2013-03-26 03:44:00,61.0,0.0,29.84,WSW,258,6.0,15.0,19,-99.99,,,-99.99,,2013-03-26 10:44:00,
2013-03-26 03:52:00,59.0,0.0,29.84,North,0,5.0,9.0,20,-99.99,,,-99.99,,2013-03-26 10:52:00,
2013-03-26 04:00:00,57.0,0.0,29.84,ENE,57,3.0,6.0,21,-99.99,,,-99.99,,2013-03-26 11:00:00,
2013-03-26 04:08:00,56.0,0.0,29.84,East,82,5.0,5.0,21,-99.99,,,-99.99,,2013-03-26 11:08:00,
2013-03-26 04:16:00,53.0,0.0,29.84,East,100,5.0,7.0,24,-99.99,,,-99.99,,2013-03-26 11:16:00,
2013-03-26 04:24:00,56.0,0.0,29.84,ENE,68,6.0,6.0,20,-99.99,,,-99.99,,2013-03-26 11:24:00,
2013-03-26 04:32:00,57.0,0.0,29.83,North,361,3.0,12.0,24,-99.99,,,-99.99,,2013-03-26 11:32:00,
2013-03-26 04:40:00,60.0,0.0,29.83,ESE,123,7.0,12.0,20,-99.99,,,-99.99,,2013-03-26 11:40:00,
2013-03-26 04:48:00,60.0,0.0,29.83,SSE,159,7.0,7.0,21,-99.99,,,-99.99,,2013-03-26 11:48:00,
2013-03-26 04:56:00,59.0,0.0,29.83,South,169,5.0,9.0,23,-99.99,,,-99.99,,2013-03-26 11:56:00,
2013-03-26 05:04:00,61.0,0.0,29.83,SSE,166,7.0,10.0,25,-99.99,,,-99.99,,2013-03-26 12:04:00,
2013-03-26 05:12:00,59.0,0.0,29.83,South,181,7.0,12.0,25,-99.99,,,-99.99,,2013-03-26 12:12:00,
2013-03-26 05:20:00,59.0,0.0,29.83,South,171,9.0,13.0,25,-99.99,,,-99.99,,2013-03-26 12:20:00,
2013-03-26 05:28:00,59.0,0.0,29.83,SSE,160,8.0,16.0,24,-99.99,,,-99.99,,2013-03-26 12:28:00,
2013-03-26 05:36:00,59.0,0.0,29.83,South,174,5.0,14.0,26,-99.99,,,-99.99,,2013-03-26 12:36:00,
2013-03-26 05:44:00,58.0,0.0,29.83,South,170,3.0,14.0,24,-99.99,,,-99.99,,2013-03-26 12:44:00,
2013-03-26 05:52:00,55.0,0.0,29.83,NE,49,6.0,9.0,28,-99.99,,,-99.99,,2013-03-26 12:52:00,
2013-03-26 06:00:00,59.0,0.0,29.84,South,178,2.0,8.0,25,-99.99,,,-99.99,,2013-03-26 13:00:00,
2013-03-26 06:08:00,58.0,0.0,29.84,South,188,2.0,7.0,26,-99.99,,,-99.99,,2013-03-26 13:08:00,
2013-03-26 06:16:00,58.0,0.0,29.84,SSW,194,6.0,8.0,25,-99.99,,,-99.99,,2013-03-26 13:16:00,
2013-03-26 06:24:00,57.0,0.0,29.84,SSW,202,5.0,8.0,25,-99.99,,,-99.99,,2013-03-26 13:24:00,
2013-03-26 06:32:00,58.0,0.0,29.84,SSW,211,8.0,9.0,25,-99.99,,,-99.99,,2013-03-26 13:32:00,
2013-03-26 06:40:00,58.0,0.0,29.84,South,182,10.0,12.0,27,-99.99,,,-99.99,,2013-03-26 13:40:00,
2013-03-26 06:48:00,58.0,0.0,29.84,SW,224,7.0,12.0,26,-99.99,,,-99.99,,2013-03-26 13:48:00,
2013-03-26 06:56:00,57.0,0.0,29.84,SW,220,7.0,10.0,27,-99.99,,,-99.99,,2013-03-26 13:56:00,
2013-03-26 07:04:00,57.0,0.0,29.84,South,183,7.0,10.0,24,-99.99,,,-99.99,,2013-03-26 14:04:00,
2013-03-26 07:12:00,58.0,0.0,29.84,SSW,199,2.0,9.0,23,-99.99,,,-99.99,,2013-03-26 14:12:00,
2013-03-26 07:20:00,53.0,0.0,29.85,WNW,300,2.0,8.0,26,-99.99,,,-99.99,,2013-03-26 14:20:00,
2013-03-26 07:28:00,50.0,0.0,29.85,NW,326,6.0,7.0,28,-99.99,,,-99.99,,2013-03-26 14:28:00,
2013-03-26 07:36:00,50.0,0.0,29.85,NNW,329,5.0,7.0,29,-99.99,,,-99.99,,2013-03-26 14:36:00,
2013-03-26 07:44:00,52.0,0.0,29.86,ENE,63,1.0,5.0,28,-99.99,,,-99.99,,2013-03-26 14:44:00,
2013-03-26 07:52:00,53.0,0.0,29.86,SW,229,1.0,3.0,28,-99.99,,,-99.99,,2013-03-26 14:52:00,
2013-03-26 08:00:00,54.0,0.0,29.86,NW,310,2.0,3.0,26,-99.99,,,-99.99,,2013-03-26 15:00:00,
2013-03-26 08:08:00,55.0,0.0,29.86,NNE,12,1.0,3.0,30,-99.99,,,-99.99,,2013-03-26 15:08:00,
2013-03-26 08:16:00,57.0,0.0,29.86,North,354,2.0,3.0,28,-99.99,,,-99.99,,2013-03-26 15:16:00,
2013-03-26 08:24:00,59.0,0.0,29.86,West,262,5.0,5.0,25,-99.99,,,-99.99,,2013-03-26 15:24:00,
2013-03-26 08:32:00,61.0,0.0,29.86,West,281,5.0,6.0,25,-99.99,,,-99.99,,2013-03-26 15:32:00,
2013-03-26 08:40:00,61.0,0.0,29.86,NW,311,7.0,8.0,24,-99.99,,,-99.99,,2013-03-26 15:40:00,
2013-03-26 08:48:00,61.0,0.0,29.86,NW,324,7.0,8.0,23,-99.99,,,-99.99,,2013-03-26 15:48:00,
2013-03-26 08:56:00,64.0,0.0,29.86,North,361,7.0,8.0,22,-99.99,,,-99.99,,2013-03-26 15:56:00,
2013-03-26 09:04:00,66.0,0.0,29.87,NNE,31,2.0,7.0,19,-99.99,,,-99.99,,2013-03-26 16:04:00,
2013-03-26 09:12:00,67.0,0.0,29.87,NNW,335,2.0,5.0,20,-99.99,,,-99.99,,2013-03-26 16:12:00,
2013-03-26 09:20:00,65.0,0.0,29.87,WNW,302,3.0,3.0,23,-99.99,,,-99.99,,2013-03-26 16:20:00,
2013-03-26 09:28:00,66.0,0.0,29.87,NE,42,1.0,5.0,19,-99.99,,,-99.99,,2013-03-26 16:28:00,
2013-03-26 09:36:00,67.0,0.0,29.87,North,352,2.0,5.0,19,-99.99,,,-99.99,,2013-03-26 16:36:00,
2013-03-26 09:44:00,67.0,0.0,29.87,North,4,3.0,3.0,18,-99.99,,,-99.99,,2013-03-26 16:44:00,
2013-03-26 09:52:00,67.0,0.0,29.87,NNE,23,0.0,6.0,18,-99.99,,,-99.99,,2013-03-26 16:52:00,
2013-03-26 10:00:00,66.0,0.0,29.87,ESE,106,3.0,5.0,18,-99.99,,,-99.99,,2013-03-26 17:00:00,
2013-03-26 10:08:00,67.0,0.0,29.87,North,8,5.0,5.0,19,-99.99,,,-99.99,,2013-03-26 17:08:00,
2013-03-26 10:16:00,69.0,0.0,29.87,NNW,343,3.0,7.0,17,-99.99,,,-99.99,,2013-03-26 17:16:00,
2013-03-26 10:24:00,69.0,0.0,29.87,North,361,3.0,7.0,16,-99.99,,,-99.99,,2013-03-26 17:24:00,
2013-03-26 10:32:00,70.0,0.0,29.87,North,361,2.0,6.0,17,-99.99,,,-99.99,,2013-03-26 17:32:00,
2013-03-26 10:40:00,70.0,0.0,29.87,NNE,29,1.0,3.0,16,-99.99,,,-99.99,,2013-03-26 17:40:00,
2013-03-26 10:48:00,71.0,0.0,29.87,North,6,2.0,3.0,16,-99.99,,,-99.99,,2013-03-26 17:48:00,
2013-03-26 10:56:00,70.0,0.0,29.87,SSE,149,3.0,6.0,16,-99.99,,,-99.99,,2013-03-26 17:56:00,
2013-03-26 11:04:00,70.0,0.0,29.87,ESE,118,2.0,6.0,15,-99.99,,,-99.99,,2013-03-26 18:04:00,
2013-03-26 11:12:00,72.0,0.0,29.87,SW,224,3.0,10.0,15,-99.99,,,-99.99,,2013-03-26 18:12:00,
2013-03-26 11:20:00,73.0,0.0,29.87,WNW,289,0.0,6.0,14,-99.99,,,-99.99,,2013-03-26 18:20:00,
2013-03-26 11:28:00,74.0,0.0,29.87,WSW,248,3.0,6.0,16,-99.99,,,-99.99,,2013-03-26 18:28:00,
2013-03-26 11:36:00,73.0,0.0,29.86,SE,142,0.0,7.0,13,-99.99,,,-99.99,,2013-03-26 18:36:00,
2013-03-26 11:44:00,73.0,0.0,29.86,South,174,2.0,6.0,15,-99.99,,,-99.99,,2013-03-26 18:44:00,
2013-03-26 11:52:00,74.0,0.0,29.86,West,276,5.0,5.0,17,-99.99,,,-99.99,,2013-03-26 18:52:00,
2013-03-26 12:00:00,74.0,0.0,29.86,NW,306,5.0,9.0,13,-99.99,,,-99.99,,2013-03-26 19:00:00,
2013-03-26 12:08:00,72.0,0.0,29.86,SSW,210,2.0,8.0,15,-99.99,,,-99.99,,2013-03-26 19:08:00,
2013-03-26 12:16:00,74.0,0.0,29.85,West,270,2.0,7.0,13,-99.99,,,-99.99,,2013-03-26 19:16:00,
2013-03-26 12:24:00,75.0,0.0,29.85,SSW,192,3.0,3.0,13,-99.99,,,-99.99,,2013-03-26 19:24:00,
2013-03-26 12:32:00,75.0,0.0,29.85,ESE,110,5.0,6.0,13,-99.99,,,-99.99,,2013-03-26 19:32:00,
2013-03-26 12:40:00,75.0,0.0,29.84,South,169,1.0,8.0,15,-99.99,,,-99.99,,2013-03-26 19:40:00,
2013-03-26 12:48:00,77.0,0.0,29.83,North,361,5.0,9.0,14,-99.99,,,-99.99,,2013-03-26 19:48:00,
2013-03-26 12:56:00,77.0,0.0,29.83,WNW,291,3.0,9.0,12,-99.99,,,-99.99,,2013-03-26 19:56:00,
2013-03-26 13:04:00,77.0,0.0,29.83,WNW,289,3.0,8.0,14,-99.99,,,-99.99,,2013-03-26 20:04:00,
2013-03-26 13:12:00,80.0,0.0,29.83,West,273,2.0,6.0,12,-99.99,,,-99.99,,2013-03-26 20:12:00,
2013-03-26 13:20:00,82.0,0.0,29.82,NNE,25,1.0,6.0,14,-99.99,,,-99.99,,2013-03-26 20:20:00,
2013-03-26 13:28:00,80.0,0.0,29.82,NNW,329,2.0,8.0,13,-99.99,,,-99.99,,2013-03-26 20:28:00,
2013-03-26 13:40:00,80.0,0.0,29.81,NNW,339,1.0,16.0,12,-99.99,,,-99.99,,2013-03-26 20:40:00,
2013-03-26 13:48:00,80.0,0.0,29.80,West,261,13.0,18.0,15,-99.99,,,-99.99,,2013-03-26 20:48:00,
2013-03-26 13:56:00,78.0,0.0,29.80,WNW,302,13.0,23.0,15,-99.99,,,-99.99,,2013-03-26 20:56:00,
2013-03-26 14:04:00,78.0,0.0,29.79,WSW,249,9.0,23.0,14,-99.99,,,-99.99,,2013-03-26 21:04:00,
2013-03-26 14:12:00,80.0,0.0,29.79,WNW,303,16.0,21.0,16,-99.99,,,-99.99,,2013-03-26 21:12:00,
2013-03-26 14:20:00,80.0,0.0,29.79,West,271,8.0,25.0,13,-99.99,,,-99.99,,2013-03-26 21:20:00,
2013-03-26 14:28:00,80.0,0.0,29.78,WNW,287,18.0,24.0,14,-99.99,,,-99.99,,2013-03-26 21:28:00,
2013-03-26 14:36:00,79.0,0.0,29.78,West,265,14.0,24.0,16,-99.99,,,-99.99,,2013-03-26 21:36:00,
2013-03-26 14:44:00,79.0,0.0,29.78,West,266,10.0,22.0,14,-99.99,,,-99.99,,2013-03-26 21:44:00,
2013-03-26 14:52:00,81.0,0.0,29.78,WNW,282,22.0,24.0,16,-99.99,,,-99.99,,2013-03-26 21:52:00,
2013-03-26 15:00:00,80.0,0.0,29.77,WNW,289,12.0,25.0,17,-99.99,,,-99.99,,2013-03-26 22:00:00,
2013-03-26 15:08:00,80.0,0.0,29.77,WNW,288,17.0,28.0,17,-99.99,,,-99.99,,2013-03-26 22:08:00,
2013-03-26 15:16:00,80.0,0.0,29.77,WNW,282,26.0,29.0,17,-99.99,,,-99.99,,2013-03-26 22:16:00,
2013-03-26 15:24:00,79.0,0.0,29.76,WSW,256,13.0,30.0,17,-99.99,,,-99.99,,2013-03-26 22:24:00,
2013-03-26 15:32:00,80.0,0.0,29.76,WNW,297,18.0,28.0,15,-99.99,,,-99.99,,2013-03-26 22:32:00,
2013-03-26 15:40:00,79.0,0.0,29.76,WSW,254,12.0,26.0,17,-99.99,,,-99.99,,2013-03-26 22:40:00,
2013-03-26 15:48:00,79.0,0.0,29.76,West,265,14.0,30.0,16,-99.99,,,-99.99,,2013-03-26 22:48:00,
2013-03-26 15:56:00,79.0,0.0,29.76,WSW,255,21.0,31.0,16,-99.99,,,-99.99,,2013-03-26 22:56:00,
2013-03-26 16:04:00,78.0,0.0,29.75,WSW,257,13.0,30.0,19,-99.99,,,-99.99,,2013-03-26 23:04:00,
2013-03-26 16:12:00,78.0,0.0,29.75,West,270,15.0,30.0,17,-99.99,,,-99.99,,2013-03-26 23:12:00,
2013-03-26 16:20:00,78.0,0.0,29.75,West,262,23.0,31.0,17,-99.99,,,-99.99,,2013-03-26 23:20:00,
2013-03-26 16:28:00,77.0,0.0,29.75,West,261,15.0,31.0,18,-99.99,,,-99.99,,2013-03-26 23:28:00,
2013-03-26 16:36:00,78.0,0.0,29.74,WSW,256,17.0,30.0,18,-99.99,,,-99.99,,2013-03-26 23:36:00,
2013-03-26 16:44:00,78.0,0.0,29.74,WNW,291,22.0,29.0,20,-99.99,,,-99.99,,2013-03-26 23:44:00,
2013-03-26 16:52:00,78.0,0.0,29.74,West,260,22.0,29.0,21,-99.99,,,-99.99,,2013-03-26 23:52:00,
2013-03-26 17:00:00,77.0,0.0,29.74,West,276,25.0,29.0,19,-99.99,,,-99.99,,2013-03-27 00:00:00,
2013-03-26 17:08:00,77.0,0.0,29.74,WNW,295,20.0,30.0,20,-99.99,,,-99.99,,2013-03-27 00:08:00,
2013-03-26 17:16:00,35.0,0.0,29.74,WNW,284,29.0,31.0,21,-99.99,,,-99.99,,2013-03-27 00:16:00,
2013-03-26 17:24:00,35.0,0.0,29.73,WNW,286,16.0,31.0,21,-99.99,,,-99.99,,2013-03-27 00:24:00,
2013-03-26 17:32:00,74.0,0.0,29.73,WNW,292,23.0,29.0,20,-99.99,,,-99.99,,2013-03-27 00:32:00,
2013-03-26 17:40:00,74.0,0.0,29.73,West,281,21.0,30.0,20,-99.99,,,-99.99,,2013-03-27 00:40:00,
2013-03-26 17:48:00,74.0,0.0,29.73,West,274,18.0,29.0,22,-99.99,,,-99.99,,2013-03-27 00:48:00,
2013-03-26 17:56:00,33.0,0.0,29.73,WNW,284,22.0,31.0,21,-99.99,,,-99.99,,2013-03-27 00:56:00,
2013-03-26 18:04:00,33.0,0.0,29.73,West,262,21.0,31.0,24,-99.99,,,-99.99,,2013-03-27 01:04:00,
2013-03-26 18:12:00,34.0,0.0,29.73,WNW,294,23.0,30.0,23,-99.99,,,-99.99,,2013-03-27 01:12:00,
2013-03-26 18:20:00,73.0,0.0,29.73,West,281,18.0,30.0,22,-99.99,,,-99.99,,2013-03-27 01:20:00,
2013-03-26 18:28:00,73.0,0.0,29.73,West,277,25.0,28.0,22,-99.99,,,-99.99,,2013-03-27 01:28:00,
2013-03-26 18:36:00,72.0,0.0,29.73,WNW,298,17.0,30.0,23,-99.99,,,-99.99,,2013-03-27 01:36:00,
2013-03-26 18:44:00,72.0,0.0,29.73,WNW,302,17.0,31.0,23,-99.99,,,-99.99,,2013-03-27 01:44:00,
2013-03-26 18:52:00,71.0,0.0,29.73,West,278,20.0,31.0,24,-99.99,,,-99.99,,2013-03-27 01:52:00,
2013-03-26 19:00:00,70.0,0.0,29.74,WNW,298,16.0,31.0,26,-99.99,,,-99.99,,2013-03-27 02:00:00,
2013-03-26 19:08:00,70.0,0.0,29.74,WNW,299,16.0,32.0,25,-99.99,,,-99.99,,2013-03-27 02:08:00,
2013-03-26 19:16:00,70.0,0.0,29.74,WNW,291,26.0,32.0,28,-99.99,,,-99.99,,2013-03-27 02:16:00,
2013-03-26 19:24:00,70.0,0.0,29.74,NW,305,25.0,32.0,26,-99.99,,,-99.99,,2013-03-27 02:24:00,
2013-03-26 19:32:00,69.0,0.0,29.75,WNW,295,21.0,31.0,27,-99.99,,,-99.99,,2013-03-27 02:32:00,
2013-03-26 19:40:00,69.0,0.0,29.75,WNW,298,24.0,31.0,26,-99.99,,,-99.99,,2013-03-27 02:40:00,
2013-03-26 19:48:00,68.0,0.0,29.75,WNW,293,22.0,28.0,28,-99.99,,,-99.99,,2013-03-27 02:48:00,
2013-03-26 19:56:00,68.0,0.0,29.76,West,279,17.0,26.0,28,-99.99,,,-99.99,,2013-03-27 02:56:00,
2013-03-26 20:04:00,68.0,0.0,29.77,West,276,20.0,22.0,27,-99.99,,,-99.99,,2013-03-27 03:04:00,
2013-03-26 20:12:00,68.0,0.0,29.77,WNW,285,13.0,23.0,29,-99.99,,,-99.99,,2013-03-27 03:12:00,
2013-03-26 20:20:00,67.0,0.0,29.78,West,274,12.0,22.0,29,-99.99,,,-99.99,,2013-03-27 03:20:00,
2013-03-26 20:28:00,67.0,0.0,29.78,WNW,284,12.0,24.0,29,-99.99,,,-99.99,,2013-03-27 03:28:00,
2013-03-26 20:36:00,67.0,0.0,29.78,WNW,284,13.0,24.0,29,-99.99,,,-99.99,,2013-03-27 03:36:00,
2013-03-26 20:44:00,66.0,0.0,29.78,West,270,9.0,18.0,29,-99.99,,,-99.99,,2013-03-27 03:44:00,
2013-03-26 20:52:00,66.0,0.0,29.78,WSW,254,15.0,18.0,28,-99.99,,,-99.99,,2013-03-27 03:52:00,
2013-03-26 21:04:00,66.0,0.0,29.79,SW,222,9.0,14.0,27,-99.99,,,-99.99,,2013-03-27 04:04:00,
2013-03-26 21:08:00,66.0,0.0,29.79,SW,222,9.0,14.0,27,-99.99,,,-99.99,,2013-03-27 04:08:00,
2013-03-26 21:16:00,65.0,0.0,29.79,WSW,237,10.0,17.0,29,-99.99,,,-99.99,,2013-03-27 04:16:00,
2013-03-26 21:24:00,65.0,0.0,29.79,West,266,6.0,13.0,29,-99.99,,,-99.99,,2013-03-27 04:24:00,
2013-03-26 21:28:00,64.0,0.0,29.79,WSW,255,9.0,13.0,31,-99.99,,,-99.99,,2013-03-27 04:28:00,
2013-03-26 21:36:00,65.0,0.0,29.79,WSW,255,13.0,15.0,29,-99.99,,,-99.99,,2013-03-27 04:36:00,
2013-03-26 21:44:00,64.0,0.0,29.79,WSW,251,12.0,15.0,30,-99.99,,,-99.99,,2013-03-27 04:44:00,
2013-03-26 21:52:00,64.0,0.0,29.79,SW,230,9.0,14.0,32,-99.99,,,-99.99,,2013-03-27 04:52:00,
2013-03-26 22:00:00,63.0,0.0,29.79,WSW,250,12.0,14.0,30,-99.99,,,-99.99,,2013-03-27 05:00:00,
2013-03-26 22:08:00,64.0,0.0,29.79,SW,232,12.0,18.0,32,-99.99,,,-99.99,,2013-03-27 05:08:00,
2013-03-26 22:16:00,63.0,0.0,29.80,WSW,243,8.0,16.0,30,-99.99,,,-99.99,,2013-03-27 05:16:00,
2013-03-26 22:24:00,63.0,0.0,29.80,WSW,241,7.0,16.0,33,-99.99,,,-99.99,,2013-03-27 05:24:00,
2013-03-26 22:32:00,63.0,0.0,29.80,NNW,347,8.0,12.0,27,-99.99,,,-99.99,,2013-03-27 05:32:00,
2013-03-26 22:40:00,63.0,0.0,29.80,North,361,7.0,12.0,27,-99.99,,,-99.99,,2013-03-27 05:40:00,
2013-03-26 22:48:00,63.0,0.0,29.80,NNW,345,8.0,10.0,26,-99.99,,,-99.99,,2013-03-27 05:48:00,
2013-03-26 22:56:00,63.0,0.0,29.80,NNW,329,7.0,9.0,27,-99.99,,,-99.99,,2013-03-27 05:56:00,
2013-03-26 23:04:00,62.0,0.0,29.81,SSE,168,2.0,8.0,29,-99.99,,,-99.99,,2013-03-27 06:04:00,
2013-03-26 23:12:00,62.0,0.0,29.81,SW,230,2.0,5.0,31,-99.99,,,-99.99,,2013-03-27 06:12:00,
2013-03-26 23:20:00,62.0,0.0,29.81,SW,215,7.0,7.0,28,-99.99,,,-99.99,,2013-03-27 06:20:00,
2013-03-26 23:28:00,61.0,0.0,29.81,WSW,244,9.0,9.0,31,-99.99,,,-99.99,,2013-03-27 06:28:00,
2013-03-26 23:36:00,61.0,0.0,29.80,WSW,249,10.0,12.0,31,-99.99,,,-99.99,,2013-03-27 06:36:00,
2013-03-26 23:44:00,62.0,0.0,29.80,West,278,7.0,13.0,30,-99.99,,,-99.99,,2013-03-27 06:44:00,
2013-03-26 23:52:00,60.0,0.0,29.80,WSW,254,8.0,13.0,33,-99.99,,,-99.99,,2013-03-27 06:52:00,